Time,TemperatureF,DewpointF,PressureIn,WindDirection,WindDirectionDegrees,WindSpeedMPH,WindSpeedGustMPH,Humidity,HourlyPrecipIn,Conditions,Clouds,dailyrainin,SolarRadiationWatts/m^2,SoftwareType,DateUTC
2013-08-03 00:04:00,68.3,67.0,29.89,WSW,241,0.0,0.0,94,0.00,,,0.00,0,weatherlink.com 1.10,2013-08-03 04:04:00,
2013-08-03 00:19:00,68.8,67.0,29.89,WSW,241,0.0,1.0,95,0.00,,,0.00,0,weatherlink.com 1.10,2013-08-03 04:19:00,
2013-08-03 00:34:00,69.7,68.0,29.88,WSW,241,0.0,0.0,95,0.00,,,0.00,0,weatherlink.com 1.10,2013-08-03 04:34:00,
2013-08-03 00:50:00,69.1,67.0,29.88,WSW,241,0.0,0.0,94,0.00,,,0.00,0,weatherlink.com 1.10,2013-08-03 04:50:00,
2013-08-03 01:05:00,69.3,68.0,29.87,WSW,241,0.0,0.0,94,0.00,,,0.00,0,weatherlink.com 1.10,2013-08-03 05:05:00,
2013-08-03 01:20:00,68.7,67.0,29.87,WSW,241,0.0,1.0,95,0.00,,,0.00,0,weatherlink.com 1.10,2013-08-03 05:20:00,
2013-08-03 01:35:00,68.3,67.0,29.86,WSW,241,0.0,0.0,96,0.00,,,0.00,0,weatherlink.com 1.10,2013-08-03 05:35:00,
2013-08-03 01:50:00,68.1,67.0,29.86,SSW,203,2.0,3.0,96,0.00,,,0.00,0,weatherlink.com 1.10,2013-08-03 05:50:00,
2013-08-03 02:05:00,69.5,68.0,29.85,SW,215,0.0,5.0,94,0.00,,,0.00,0,weatherlink.com 1.10,2013-08-03 06:05:00,
2013-08-03 02:20:00,69.6,67.0,29.85,SW,215,0.0,1.0,92,0.00,,,0.00,0,weatherlink.com 1.10,2013-08-03 06:20:00,
2013-08-03 02:35:00,69.8,67.0,29.84,SW,215,0.0,1.0,92,0.00,,,0.00,0,weatherlink.com 1.10,2013-08-03 06:35:00,
2013-08-03 02:50:00,69.8,67.0,29.84,SW,215,0.0,1.0,91,0.00,,,0.00,0,weatherlink.com 1.10,2013-08-03 06:50:00,
2013-08-03 03:05:00,69.3,67.0,29.84,SW,215,0.0,0.0,92,0.00,,,0.00,0,weatherlink.com 1.10,2013-08-03 07:05:00,
2013-08-03 03:20:00,69.1,67.0,29.84,SW,215,0.0,1.0,93,0.00,,,0.00,0,weatherlink.com 1.10,2013-08-03 07:20:00,
2013-08-03 03:35:00,69.0,67.0,29.84,SW,225,0.0,2.0,93,0.00,,,0.00,0,weatherlink.com 1.10,2013-08-03 07:35:00,
2013-08-03 03:50:00,69.0,67.0,29.83,WSW,240,0.0,3.0,92,0.00,,,0.00,0,weatherlink.com 1.10,2013-08-03 07:50:00,
2013-08-03 04:05:00,69.2,67.0,29.83,WSW,257,0.0,1.0,92,0.00,,,0.00,0,weatherlink.com 1.10,2013-08-03 08:05:00,
2013-08-03 04:20:00,69.3,67.0,29.83,WNW,288,0.0,4.0,91,0.00,,,0.00,0,weatherlink.com 1.10,2013-08-03 08:20:00,
2013-08-03 04:35:00,69.4,66.0,29.83,WNW,286,0.0,4.0,90,0.00,,,0.00,0,weatherlink.com 1.10,2013-08-03 08:35:00,
2013-08-03 04:50:00,69.4,66.0,29.85,WNW,301,0.0,2.0,89,0.00,,,0.00,0,weatherlink.com 1.10,2013-08-03 08:50:00,
2013-08-03 05:05:00,69.5,66.0,29.86,SSW,207,0.0,4.0,88,0.00,,,0.00,0,weatherlink.com 1.10,2013-08-03 09:05:00,
2013-08-03 05:20:00,69.3,66.0,29.85,SSW,193,0.0,5.0,88,0.00,,,0.00,0,weatherlink.com 1.10,2013-08-03 09:20:00,
2013-08-03 05:35:00,69.1,66.0,29.86,SSW,193,0.0,1.0,89,0.00,,,0.00,0,weatherlink.com 1.10,2013-08-03 09:35:00,
2013-08-03 05:51:00,69.2,65.0,29.85,WNW,300,3.0,4.0,86,0.00,,,0.00,0,weatherlink.com 1.10,2013-08-03 09:51:00,
2013-08-03 06:05:00,69.7,64.0,29.86,South,188,0.0,4.0,82,0.00,,,0.00,9,weatherlink.com 1.10,2013-08-03 10:05:00,
2013-08-03 06:20:00,69.9,64.0,29.86,SW,224,0.0,1.0,80,0.00,,,0.00,11,weatherlink.com 1.10,2013-08-03 10:20:00,
2013-08-03 06:35:00,69.5,63.0,29.86,SW,225,0.0,1.0,81,0.00,,,0.00,11,weatherlink.com 1.10,2013-08-03 10:35:00,
2013-08-03 06:50:00,68.9,64.0,29.87,SW,225,0.0,1.0,83,0.00,,,0.00,9,weatherlink.com 1.10,2013-08-03 10:50:00,
2013-08-03 07:06:00,68.4,63.0,29.87,SSW,196,3.0,7.0,84,0.00,,,0.00,12,weatherlink.com 1.10,2013-08-03 11:06:00,
2013-08-03 07:22:00,67.8,64.0,29.87,SSW,204,0.0,4.0,86,0.01,,,0.01,44,weatherlink.com 1.10,2013-08-03 11:22:00,
2013-08-03 07:36:00,67.8,64.0,29.86,SW,218,3.0,8.0,86,0.01,,,0.01,104,weatherlink.com 1.10,2013-08-03 11:36:00,
2013-08-03 07:51:00,68.1,64.0,29.86,WNW,288,0.0,8.0,85,0.01,,,0.01,51,weatherlink.com 1.10,2013-08-03 11:51:00,
2013-08-03 08:06:00,67.9,63.0,29.86,SW,236,0.0,1.0,85,0.01,,,0.01,104,weatherlink.com 1.10,2013-08-03 12:06:00,
2013-08-03 08:21:00,68.1,64.0,29.86,WNW,283,0.0,5.0,85,0.00,,,0.01,51,weatherlink.com 1.10,2013-08-03 12:21:00,
2013-08-03 08:36:00,68.3,64.0,29.87,WNW,290,1.0,6.0,86,0.00,,,0.01,67,weatherlink.com 1.10,2013-08-03 12:36:00,
2013-08-03 08:51:00,68.3,64.0,29.86,West,277,0.0,6.0,86,0.00,,,0.01,62,weatherlink.com 1.10,2013-08-03 12:51:00,
2013-08-03 09:07:00,68.0,64.0,29.87,WNW,288,4.0,5.0,88,0.00,,,0.01,62,weatherlink.com 1.10,2013-08-03 13:07:00,
2013-08-03 09:22:00,67.9,65.0,29.86,SW,231,1.0,5.0,89,0.00,,,0.01,102,weatherlink.com 1.10,2013-08-03 13:22:00,
2013-08-03 09:37:00,67.8,65.0,29.86,West,275,0.0,2.0,91,0.01,,,0.02,88,weatherlink.com 1.10,2013-08-03 13:37:00,
2013-08-03 09:52:00,67.8,66.0,29.86,SSW,206,3.0,5.0,92,0.01,,,0.02,114,weatherlink.com 1.10,2013-08-03 13:52:00,
2013-08-03 10:08:00,68.0,66.0,29.87,West,277,3.0,5.0,92,0.01,,,0.02,130,weatherlink.com 1.10,2013-08-03 14:08:00,
2013-08-03 10:22:00,68.1,66.0,29.86,SSW,211,0.0,6.0,92,0.02,,,0.03,113,weatherlink.com 1.10,2013-08-03 14:22:00,
2013-08-03 10:38:00,68.1,66.0,29.87,West,265,0.0,4.0,93,0.01,,,0.03,139,weatherlink.com 1.10,2013-08-03 14:38:00,
2013-08-03 10:53:00,68.3,66.0,29.87,West,273,3.0,3.0,93,0.01,,,0.03,135,weatherlink.com 1.10,2013-08-03 14:53:00,
2013-08-03 11:09:00,68.7,67.0,29.87,South,175,0.0,2.0,93,0.01,,,0.03,158,weatherlink.com 1.10,2013-08-03 15:09:00,
2013-08-03 11:23:00,68.8,67.0,29.86,SW,235,0.0,3.0,93,0.00,,,0.03,163,weatherlink.com 1.10,2013-08-03 15:23:00,
2013-08-03 11:38:00,68.8,67.0,29.86,SSW,206,3.0,6.0,93,0.00,,,0.03,144,weatherlink.com 1.10,2013-08-03 15:38:00,
2013-08-03 11:53:00,68.7,67.0,29.86,South,191,1.0,7.0,93,0.00,,,0.03,192,weatherlink.com 1.10,2013-08-03 15:53:00,
2013-08-03 12:09:00,68.8,67.0,29.87,West,271,3.0,8.0,93,0.00,,,0.03,171,weatherlink.com 1.10,2013-08-03 16:09:00,
2013-08-03 12:25:00,69.2,68.0,29.86,WSW,248,0.0,6.0,94,0.00,,,0.03,250,weatherlink.com 1.10,2013-08-03 16:25:00,
2013-08-03 12:38:00,69.5,68.0,29.87,WNW,284,0.0,5.0,93,0.00,,,0.03,257,weatherlink.com 1.10,2013-08-03 16:38:00,
2013-08-03 12:55:00,70.1,68.0,29.86,SW,220,6.0,6.0,92,0.00,,,0.03,327,weatherlink.com 1.10,2013-08-03 16:55:00,
2013-08-03 13:09:00,70.9,68.0,29.86,SW,221,1.0,9.0,91,0.00,,,0.03,436,weatherlink.com 1.10,2013-08-03 17:09:00,
2013-08-03 13:25:00,71.2,68.0,29.86,SSW,213,0.0,7.0,88,0.00,,,0.03,246,weatherlink.com 1.10,2013-08-03 17:25:00,
2013-08-03 13:40:00,71.2,68.0,29.86,SW,227,2.0,7.0,88,0.00,,,0.03,297,weatherlink.com 1.10,2013-08-03 17:40:00,
2013-08-03 13:55:00,71.6,68.0,29.86,NW,324,2.0,11.0,87,0.00,,,0.03,320,weatherlink.com 1.10,2013-08-03 17:55:00,
2013-08-03 14:09:00,72.0,68.0,29.86,West,277,5.0,8.0,86,0.00,,,0.03,339,weatherlink.com 1.10,2013-08-03 18:09:00,
2013-08-03 14:25:00,72.0,68.0,29.86,West,276,1.0,6.0,86,0.00,,,0.03,125,weatherlink.com 1.10,2013-08-03 18:25:00,
2013-08-03 14:40:00,71.9,68.0,29.85,SW,232,0.0,9.0,86,0.00,,,0.03,410,weatherlink.com 1.10,2013-08-03 18:40:00,
2013-08-03 14:55:00,73.5,68.0,29.84,WSW,244,8.0,11.0,82,0.00,,,0.03,338,weatherlink.com 1.10,2013-08-03 18:55:00,
2013-08-03 15:10:00,72.8,67.0,29.84,WSW,238,0.0,6.0,83,0.00,,,0.03,302,weatherlink.com 1.10,2013-08-03 19:10:00,
2013-08-03 15:25:00,74.2,68.0,29.84,South,185,0.0,5.0,81,0.00,,,0.03,330,weatherlink.com 1.10,2013-08-03 19:25:00,
2013-08-03 15:41:00,74.0,67.0,29.83,SSW,200,0.0,7.0,79,0.00,,,0.03,274,weatherlink.com 1.10,2013-08-03 19:41:00,
2013-08-03 15:56:00,75.4,68.0,29.83,South,180,4.0,7.0,77,0.00,,,0.03,789,weatherlink.com 1.10,2013-08-03 19:56:00,
2013-08-03 16:12:00,75.8,67.0,29.83,West,270,1.0,8.0,75,0.00,,,0.03,729,weatherlink.com 1.10,2013-08-03 20:12:00,
2013-08-03 16:26:00,76.3,68.0,29.83,WSW,237,6.0,7.0,76,0.00,,,0.03,647,weatherlink.com 1.10,2013-08-03 20:26:00,
2013-08-03 16:41:00,75.7,68.0,29.82,WSW,238,0.0,9.0,78,0.00,,,0.03,605,weatherlink.com 1.10,2013-08-03 20:41:00,
2013-08-03 16:56:00,76.1,68.0,29.82,South,188,2.0,11.0,76,0.00,,,0.03,563,weatherlink.com 1.10,2013-08-03 20:56:00,
2013-08-03 17:12:00,76.0,68.0,29.82,WNW,290,2.0,7.0,77,0.00,,,0.03,469,weatherlink.com 1.10,2013-08-03 21:12:00,
2013-08-03 17:26:00,75.6,68.0,29.81,SSW,198,2.0,9.0,77,0.01,,,0.04,109,weatherlink.com 1.10,2013-08-03 21:26:00,
2013-08-03 17:42:00,75.2,68.0,29.81,South,184,3.0,7.0,77,0.01,,,0.04,378,weatherlink.com 1.10,2013-08-03 21:42:00,
2013-08-03 17:57:00,75.1,67.0,29.81,SW,234,0.0,9.0,77,0.01,,,0.04,316,weatherlink.com 1.10,2013-08-03 21:57:00,
2013-08-03 18:12:00,74.6,66.0,29.81,WNW,297,0.0,11.0,75,0.01,,,0.04,188,weatherlink.com 1.10,2013-08-03 22:12:00,
2013-08-03 18:27:00,73.5,66.0,29.81,WSW,239,0.0,5.0,76,0.00,,,0.04,134,weatherlink.com 1.10,2013-08-03 22:27:00,
2013-08-03 18:42:00,73.6,66.0,29.80,West,265,0.0,5.0,77,0.00,,,0.04,181,weatherlink.com 1.10,2013-08-03 22:42:00,
2013-08-03 18:57:00,73.3,66.0,29.80,SSW,192,0.0,7.0,78,0.00,,,0.04,128,weatherlink.com 1.10,2013-08-03 22:57:00,
2013-08-03 19:12:00,72.7,66.0,29.81,SSW,197,0.0,5.0,79,0.00,,,0.04,33,weatherlink.com 1.10,2013-08-03 23:12:00,
2013-08-03 19:28:00,72.3,65.0,29.82,West,273,0.0,4.0,79,0.00,,,0.04,37,weatherlink.com 1.10,2013-08-03 23:28:00,
2013-08-03 19:43:00,72.2,65.0,29.82,West,269,0.0,3.0,79,0.00,,,0.04,9,weatherlink.com 1.10,2013-08-03 23:43:00,
2013-08-03 19:58:00,71.6,66.0,29.83,West,269,0.0,1.0,81,0.00,,,0.04,0,weatherlink.com 1.10,2013-08-03 23:58:00,
2013-08-03 20:14:00,70.5,65.0,29.83,West,269,0.0,0.0,83,0.00,,,0.04,0,weatherlink.com 1.10,2013-08-04 00:14:00,
2013-08-03 20:28:00,69.2,65.0,29.83,West,269,0.0,0.0,86,0.00,,,0.04,0,weatherlink.com 1.10,2013-08-04 00:28:00,
2013-08-03 20:43:00,68.6,65.0,29.84,West,269,0.0,0.0,87,0.00,,,0.04,0,weatherlink.com 1.10,2013-08-04 00:43:00,
2013-08-03 20:58:00,68.2,65.0,29.85,NW,318,0.0,3.0,88,0.00,,,0.04,0,weatherlink.com 1.10,2013-08-04 00:58:00,
2013-08-03 21:13:00,67.9,65.0,29.86,NW,318,0.0,1.0,89,0.00,,,0.04,0,weatherlink.com 1.10,2013-08-04 01:13:00,
2013-08-03 21:29:00,68.3,65.0,29.86,West,279,0.0,1.0,89,0.00,,,0.04,0,weatherlink.com 1.10,2013-08-04 01:29:00,
2013-08-03 21:44:00,69.5,63.0,29.86,West,273,0.0,3.0,81,0.00,,,0.04,0,weatherlink.com 1.10,2013-08-04 01:44:00,
2013-08-03 21:59:00,69.5,63.0,29.85,West,273,0.0,1.0,80,0.00,,,0.04,0,weatherlink.com 1.10,2013-08-04 01:59:00,
2013-08-03 22:15:00,68.3,63.0,29.86,West,273,0.0,1.0,84,0.00,,,0.04,0,weatherlink.com 1.10,2013-08-04 02:15:00,
2013-08-03 22:30:00,67.4,63.0,29.86,West,273,0.0,1.0,85,0.00,,,0.04,0,weatherlink.com 1.10,2013-08-04 02:30:00,
2013-08-03 22:45:00,66.8,63.0,29.87,West,273,0.0,0.0,86,0.00,,,0.04,0,weatherlink.com 1.10,2013-08-04 02:45:00,
2013-08-03 22:59:00,66.6,63.0,29.86,West,273,0.0,0.0,88,0.00,,,0.04,0,weatherlink.com 1.10,2013-08-04 02:59:00,
2013-08-03 23:15:00,66.0,63.0,29.86,West,273,0.0,0.0,89,0.00,,,0.04,0,weatherlink.com 1.10,2013-08-04 03:15:00,
2013-08-03 23:31:00,65.5,63.0,29.86,West,273,0.0,0.0,90,0.00,,,0.04,0,weatherlink.com 1.10,2013-08-04 03:31:00,
2013-08-03 23:45:00,64.8,62.0,29.85,West,273,0.0,0.0,91,0.00,,,0.04,0,weatherlink.com 1.10,2013-08-04 03:45:00,